Change the Weather History Date:

Wednesday, February 6, 2013

  Actual Average Record
Temperature  
Mean Temperature 75 °F 73 °F  
Max Temperature 80 °F 80 °F 86 °F (1996)
Min Temperature 70 °F 66 °F 56 °F (1998)
Degree Days  
Heating Degree Days 0 0  
Month to date heating degree days 0 0  
Since 1 July heating degree days 0 0  
Cooling Degree Days 10 8  
Month to date cooling degree days 57 48  
Year to date cooling degree days 276 302  
Growing Degree Days 25 (Base 50)    
Moisture  
Dew Point 62 °F    
Average Humidity 67    
Maximum Humidity 79    
Minimum Humidity 54    
Precipitation  
Precipitation T in 0.06 in 2.68 in (1976)
Month to date precipitation T 0.39  
Year to date precipitation 2.42 2.70  
Snow  
Snow 0.00 in - - ()
Month to date snowfall 0.0  
Since 1 July snowfall 0.0  
Snow Depth 0.00 in    
Sea Level Pressure  
Sea Level Pressure 30.06 in    
Wind  
Wind Speed 9 mph (NE)    
Max Wind Speed 22 mph    
Max Gust Speed 28 mph    
Visibility 10 miles    
Events Rain    
T = Trace of Precipitation, MM = Missing Value Source: NWS Daily Summary

Daily Weather History Graph

Daily Weather History Graph

Search for Another Location

Airport or City:

Trip Planner

Search our weather history database for the weather conditions in past years. The results will help you decide how hot, cold, wet, or windy it might be!

Date:

Astronomy

Feb. 06, 2013 Rise Set
Actual Time 7:06 AM HST 6:25 PM HST
Civil Twilight 6:43 AM HST 6:48 PM HST
Nautical Twilight 6:17 AM HST 7:14 PM HST
Astronomical Twilight 5:51 AM HST 7:40 PM HST
Moon 3:48 AM HST (2/6) 3:08 PM HST (2/6)
Length of Visible Light 12h 04m
Length of Day
11h 18m
Waning Crescent, 15% of the Moon is Illuminated
Feb 6
Waning Crescent
Feb 9
New
Feb 17
First Quarter
Feb 25
Full
Mar 4
Last Quarter

Hourly Weather History & Observations

Time (HST) Temp. Heat Index Dew Point Humidity Pressure Visibility Wind Dir Wind Speed Gust Speed Precip Events Conditions
12:53 AM 70.0 °F - 60.1 °F 71% 30.07 in 10.0 mi North 6.9 mph - N/A   Partly Cloudy
1:53 AM 71.1 °F - 59.0 °F 66% 30.05 in 10.0 mi NE 11.5 mph - N/A   Partly Cloudy
2:53 AM 71.1 °F - 60.1 °F 68% 30.04 in 10.0 mi NNE 11.5 mph - N/A   Partly Cloudy
3:53 AM 71.1 °F - 60.1 °F 68% 30.04 in 10.0 mi NE 13.8 mph - N/A   Scattered Clouds
4:53 AM 71.1 °F - 61.0 °F 70% 30.04 in 10.0 mi NE 8.1 mph - N/A   Mostly Cloudy
5:53 AM 71.1 °F - 61.0 °F 70% 30.05 in 10.0 mi NE 8.1 mph - N/A   Mostly Cloudy
6:53 AM 71.1 °F - 62.1 °F 73% 30.07 in 10.0 mi ENE 6.9 mph - 0.00 in Rain Light Rain
7:53 AM 71.1 °F - 63.0 °F 75% 30.09 in 10.0 mi North 3.5 mph - 0.00 in   Mostly Cloudy
8:53 AM 71.1 °F - 64.0 °F 78% 30.10 in 10.0 mi NNE 3.5 mph - 0.00 in   Mostly Cloudy
9:53 AM 75.0 °F - 63.0 °F 66% 30.10 in 10.0 mi ENE 11.5 mph 20.7 mph 0.00 in   Scattered Clouds
10:53 AM 78.1 °F - 63.0 °F 60% 30.10 in 10.0 mi NE 10.4 mph 24.2 mph N/A   Scattered Clouds
11:53 AM 77.0 °F - 63.0 °F 62% 30.08 in 10.0 mi ENE 12.7 mph 20.7 mph N/A   Scattered Clouds
12:53 PM 80.1 °F 81.2 °F 62.1 °F 54% 30.05 in 10.0 mi ENE 20.7 mph 26.5 mph N/A   Mostly Cloudy
1:53 PM 78.1 °F - 63.0 °F 60% 30.04 in 10.0 mi East 13.8 mph 19.6 mph N/A   Mostly Cloudy
2:53 PM 78.1 °F - 61.0 °F 56% 30.03 in 10.0 mi NE 15.0 mph 19.6 mph N/A   Scattered Clouds
3:53 PM 77.0 °F - 62.1 °F 60% 30.03 in 10.0 mi NE 12.7 mph 20.7 mph N/A   Scattered Clouds
4:53 PM 77.0 °F - 63.0 °F 62% 30.04 in 10.0 mi ENE 8.1 mph - N/A   Scattered Clouds
5:53 PM 75.9 °F - 63.0 °F 64% 30.05 in 10.0 mi ENE 8.1 mph - N/A   Scattered Clouds
6:53 PM 73.0 °F - 64.0 °F 73% 30.06 in 10.0 mi NNE 5.8 mph - N/A   Scattered Clouds
7:53 PM 73.0 °F - 63.0 °F 71% 30.07 in 10.0 mi NNE 5.8 mph - N/A   Partly Cloudy
8:53 PM 73.0 °F - 63.0 °F 71% 30.08 in 10.0 mi North 5.8 mph - N/A   Partly Cloudy
9:53 PM 73.0 °F - 63.0 °F 71% 30.08 in 10.0 mi NE 6.9 mph - N/A   Scattered Clouds
10:53 PM 72.0 °F - 63.0 °F 73% 30.09 in 10.0 mi NNE 3.5 mph - N/A   Partly Cloudy
11:53 PM 73.0 °F - 63.0 °F 71% 30.08 in 10.0 mi Calm Calm - N/A   Partly Cloudy